Time_in_sec,Latitude,Longitude,Altitude,Nbsat_max_qualitysignal,Nbsat_locked,valid_data
1314362336.07124257,0.00015469,0.00005288,1446.60864258,0,0,0
1314362447.91766834,0.00012438,0.00004319,1674.10327148,0,0,0
1314362447.96846914,0.00012437,0.00004319,1674.20007324,0,0,0
1314362448.02047300,0.00012440,0.00004333,1674.28149414,0,0,0
1314362448.07000661,0.00012435,0.00004318,1674.36145020,0,0,0
1314362448.12142658,0.00012438,0.00004332,1674.44274902,0,0,0
1314362448.16959596,0.00012433,0.00004317,1674.52270508,0,0,0
1314362448.22144747,0.00012437,0.00004331,1674.60412598,0,0,0
1314362448.26951098,0.00012432,0.00004316,1674.68395996,0,0,0
1314362448.32163715,0.00012435,0.00004330,1674.76525879,0,0,0
1314362448.36946440,0.00012430,0.00004315,1674.84521484,0,0,0
1314362448.42070508,0.00012433,0.00004329,1674.92639160,0,0,0
1314362448.46849298,0.00012428,0.00004314,1675.00622559,0,0,0
1314362448.52050996,0.00012431,0.00004328,1675.08740234,0,0,0
1314362448.56951046,0.00012426,0.00004313,1675.16735840,0,0,0
1314362448.62050772,0.00012429,0.00004327,1675.24841309,0,0,0
1314362448.66848803,0.00012424,0.00004312,1675.32824707,0,0,0
1314362448.72162318,0.00012427,0.00004326,1675.40930176,0,0,0
1314362448.77205801,0.00012422,0.00004311,1675.48901367,0,0,0
1314362448.82166719,0.00012425,0.00004325,1675.57006836,0,0,0
1314362448.86948919,0.00012420,0.00004310,1675.64978027,0,0,0
1314362448.92065549,0.00012424,0.00004324,1675.73083496,0,0,0
1314362448.96866226,0.00012418,0.00004309,1675.81054688,0,0,0
1314362449.02144027,0.00012422,0.00004323,1675.89147949,0,0,0
1314362449.06861567,0.00012416,0.00004308,1675.97119141,0,0,0
1314362449.12065601,0.00012420,0.00004322,1676.05212402,0,0,0
1314362449.16946554,0.00012415,0.00004307,1676.13171387,0,0,0
1314362449.22147346,0.00012418,0.00004321,1676.21264648,0,0,0
1314362449.26949000,0.00012413,0.00004306,1676.29223633,0,0,0
1314362449.30946302,0.00012416,0.00004320,1676.37304688,0,0,0
1314362449.36866498,0.00012415,0.00004319,1676.43725586,0,0,0
1314362449.42144084,0.00012414,0.00004319,1676.53344727,0,0,0
1314362449.46965003,0.00012409,0.00004304,1676.61303711,0,0,0
1314362449.52165985,0.00012412,0.00004318,1676.69384766,0,0,0
1314362449.56945992,0.00012407,0.00004303,1676.77331543,0,0,0
1314362449.62066746,0.00012410,0.00004317,1676.85400391,0,0,0
1314362449.66951036,0.00012405,0.00004302,1676.93347168,0,0,0
1314362449.72046304,0.00012408,0.00004316,1677.01403809,0,0,0
1314362449.76950669,0.00012403,0.00004301,1677.09338379,0,0,0
1314362449.81758165,0.00012407,0.00004315,1677.17407227,0,0,0
1314362449.86847353,0.00012401,0.00004300,1677.25329590,0,0,0
1314362449.92158532,0.00012405,0.00004314,1677.33398438,0,0,0
1314362449.96944690,0.00012399,0.00004299,1677.41320801,0,0,0
1314362450.01759100,0.00012403,0.00004313,1677.49377441,0,0,0
1314362450.06947279,0.00012397,0.00004298,1677.57312012,0,0,0
1314362450.12146354,0.00012401,0.00004312,1677.65356445,0,0,0
1314362450.16951084,0.00012395,0.00004297,1677.73278809,0,0,0
1314362450.22144175,0.00012399,0.00004311,1677.81323242,0,0,0
1314362450.26961470,0.00012393,0.00004296,1677.89245605,0,0,0
1314362450.32059288,0.00012397,0.00004310,1677.97290039,0,0,0
1314362450.36946845,0.00012391,0.00004296,1678.05212402,0,0,0
1314362450.42156863,0.00012395,0.00004309,1678.13256836,0,0,0
1314362450.46957803,0.00012389,0.00004295,1678.21179199,0,0,0
1314362450.52053356,0.00012393,0.00004309,1678.29223633,0,0,0
1314362450.56862307,0.00012387,0.00004294,1678.37133789,0,0,0
1314362450.62144327,0.00012391,0.00004308,1678.45178223,0,0,0
1314362450.66861439,0.00012385,0.00004293,1678.53088379,0,0,0
1314362450.72162652,0.00012389,0.00004307,1678.61120605,0,0,0
1314362450.76948190,0.00012383,0.00004292,1678.69030762,0,0,0
1314362450.82062387,0.00012387,0.00004306,1678.77075195,0,0,0
1314362450.86947370,0.00012381,0.00004291,1678.84973145,0,0,0
1314362450.92064047,0.00012385,0.00004305,1678.93005371,0,0,0
1314362450.96861720,0.00012379,0.00004291,1679.00915527,0,0,0
1314362451.01786304,0.00012383,0.00004304,1679.08947754,0,0,0
1314362451.06857228,0.00012377,0.00004290,1679.16845703,0,0,0
1314362451.11756063,0.00012381,0.00004303,1679.24865723,0,0,0
1314362451.16958594,0.00012375,0.00004289,1679.32763672,0,0,0
1314362451.22164202,0.00012379,0.00004303,1679.40783691,0,0,0
1314362451.26850033,0.00012373,0.00004288,1679.48681641,0,0,0
1314362451.31754756,0.00012377,0.00004302,1679.56701660,0,0,0
1314362451.36864448,0.00012371,0.00004287,1679.64599609,0,0,0
1314362451.42146039,0.00012375,0.00004301,1679.72619629,0,0,0
1314362451.46962357,0.00012369,0.00004286,1679.80505371,0,0,0
1314362451.52059031,0.00012373,0.00004300,1679.88525391,0,0,0
1314362451.56946254,0.00012367,0.00004286,1679.96411133,0,0,0
1314362451.62055564,0.00012371,0.00004299,1680.04418945,0,0,0
1314362451.66948128,0.00012365,0.00004285,1680.12304688,0,0,0
1314362451.70945001,0.00012369,0.00004298,1680.20324707,0,0,0
1314362451.76858401,0.00012368,0.00004298,1680.26672363,0,0,0
1314362451.82144308,0.00012367,0.00004298,1680.36206055,0,0,0
1314362451.86861396,0.00012361,0.00004283,1680.44079590,0,0,0
1314362451.92163324,0.00012365,0.00004297,1680.52087402,0,0,0
1314362451.96948743,0.00012359,0.00004283,1680.59960938,0,0,0
1314362452.02061534,0.00012363,0.00004296,1680.67956543,0,0,0
1314362452.06955290,0.00012357,0.00004282,1680.75817871,0,0,0
1314362452.12058473,0.00012361,0.00004295,1680.83813477,0,0,0
1314362452.16861653,0.00012355,0.00004281,1680.91687012,0,0,0
1314362452.21805263,0.00012359,0.00004295,1680.99670410,0,0,0
1314362452.26863909,0.00012353,0.00004280,1681.07531738,0,0,0
1314362452.32063794,0.00012357,0.00004294,1681.15515137,0,0,0
1314362452.37024474,0.00012351,0.00004279,1681.23364258,0,0,0
1314362452.41750193,0.00012355,0.00004293,1681.31335449,0,0,0
1314362452.46849775,0.00012349,0.00004279,1681.39172363,0,0,0
1314362452.51745844,0.00012353,0.00004292,1681.47143555,0,0,0
1314362452.56853676,0.00012347,0.00004278,1681.54992676,0,0,0
1314362452.61749482,0.00012351,0.00004291,1681.62951660,0,0,0
1314362452.66857743,0.00012345,0.00004277,1681.70800781,0,0,0
1314362452.72062302,0.00012349,0.00004291,1681.78759766,0,0,0
1314362452.76820517,0.00012343,0.00004276,1681.86596680,0,0,0
1314362452.82150984,0.00012347,0.00004290,1681.94555664,0,0,0
1314362452.86950803,0.00012341,0.00004275,1682.02380371,0,0,0
1314362452.91265750,0.00012345,0.00004289,1682.10339355,0,0,0
1314362452.96847820,0.00012344,0.00004289,1682.16650391,0,0,0
1314362453.01745009,0.00012343,0.00004288,1682.26123047,0,0,0
1314362453.06949806,0.00012337,0.00004274,1682.33935547,0,0,0
1314362453.12052679,0.00012341,0.00004287,1682.41882324,0,0,0
1314362453.16949916,0.00012335,0.00004273,1682.49707031,0,0,0
1314362453.22050428,0.00012340,0.00004286,1682.57653809,0,0,0
1314362453.26951075,0.00012333,0.00004272,1682.65466309,0,0,0
1314362453.30949450,0.00012338,0.00004285,1682.73400879,0,0,0
1314362453.36847448,0.00012337,0.00004285,1682.79699707,0,0,0
1314362453.41919160,0.00012336,0.00004285,1682.89147949,0,0,0
1314362453.46846962,0.00012330,0.00004270,1682.96960449,0,0,0
1314362453.52146840,0.00012334,0.00004284,1683.04882812,0,0,0
1314362453.57593632,0.00012328,0.00004270,1683.12695312,0,0,0
1314362453.61747551,0.00012332,0.00004283,1683.20617676,0,0,0
1314362453.66950655,0.00012326,0.00004269,1683.28417969,0,0,0
1314362453.70848966,0.00012330,0.00004282,1683.36340332,0,0,0
1314362453.76961470,0.00012330,0.00004281,1683.42626953,0,0,0
1314362453.81746078,0.00012329,0.00004281,1683.52050781,0,0,0
1314362453.86948395,0.00012322,0.00004267,1683.59838867,0,0,0
1314362453.92044234,0.00012327,0.00004280,1683.67761230,0,0,0
1314362453.96847534,0.00012321,0.00004266,1683.75549316,0,0,0
1314362454.02047396,0.00012325,0.00004279,1683.83459473,0,0,0
1314362454.06850505,0.00012319,0.00004265,1683.91247559,0,0,0
1314362454.11751390,0.00012323,0.00004278,1683.99157715,0,0,0
1314362454.16952538,0.00012317,0.00004264,1684.06933594,0,0,0
1314362454.21743727,0.00012321,0.00004277,1684.14843750,0,0,0
1314362454.26855302,0.00012315,0.00004263,1684.22619629,0,0,0
1314362454.32057858,0.00012320,0.00004276,1684.30517578,0,0,0
1314362454.36947846,0.00012313,0.00004262,1684.38293457,0,0,0
1314362454.42047644,0.00012318,0.00004275,1684.46191406,0,0,0
1314362454.46949005,0.00012311,0.00004262,1684.53955078,0,0,0
1314362454.51749134,0.00012316,0.00004275,1684.61853027,0,0,0
1314362454.56853747,0.00012310,0.00004261,1684.69628906,0,0,0
1314362454.61743760,0.00012314,0.00004274,1684.77526855,0,0,0
1314362454.66850376,0.00012308,0.00004260,1684.85278320,0,0,0
1314362454.72052431,0.00012312,0.00004273,1684.93176270,0,0,0
1314362454.76947665,0.00012306,0.00004259,1685.00939941,0,0,0
1314362454.82047009,0.00012311,0.00004272,1685.08813477,0,0,0
1314362454.86850715,0.00012304,0.00004258,1685.16577148,0,0,0
1314362454.92048430,0.00012309,0.00004271,1685.24450684,0,0,0
1314362454.96957946,0.00012302,0.00004257,1685.32202148,0,0,0
1314362455.01746345,0.00012307,0.00004270,1685.40087891,0,0,0
1314362455.06948495,0.00012300,0.00004256,1685.47827148,0,0,0
1314362455.12056994,0.00012305,0.00004269,1685.55700684,0,0,0
1314362455.17055035,0.00012299,0.00004256,1685.63452148,0,0,0
1314362455.21743512,0.00012303,0.00004269,1685.71325684,0,0,0
1314362455.26950026,0.00012297,0.00004255,1685.79064941,0,0,0
1314362455.31739521,0.00012301,0.00004268,1685.86926270,0,0,0
1314362455.36954904,0.00012295,0.00004254,1685.94665527,0,0,0
1314362455.41744900,0.00012300,0.00004267,1686.02526855,0,0,0
1314362455.46952534,0.00012293,0.00004253,1686.10253906,0,0,0
1314362455.51754665,0.00012298,0.00004266,1686.18115234,0,0,0
1314362455.56949687,0.00012291,0.00004252,1686.25842285,0,0,0
1314362455.62148261,0.00012296,0.00004265,1686.33691406,0,0,0
1314362455.66852069,0.00012290,0.00004252,1686.41418457,0,0,0
1314362455.71750021,0.00012294,0.00004264,1686.49267578,0,0,0
1314362455.76854372,0.00012288,0.00004251,1686.56982422,0,0,0
1314362455.81745553,0.00012293,0.00004263,1686.64831543,0,0,0
1314362455.86853242,0.00012286,0.00004250,1686.72546387,0,0,0
1314362455.91752362,0.00012291,0.00004262,1686.80383301,0,0,0
1314362455.96951532,0.00012284,0.00004249,1686.88098145,0,0,0
1314362456.02050924,0.00012289,0.00004262,1686.95922852,0,0,0
1314362456.06949902,0.00012283,0.00004248,1687.03637695,0,0,0
1314362456.10946584,0.00012287,0.00004261,1687.11462402,0,0,0
1314362456.16854644,0.00012287,0.00004260,1687.17675781,0,0,0
1314362456.21747828,0.00012286,0.00004260,1687.27001953,0,0,0
1314362456.26940560,0.00012279,0.00004246,1687.34704590,0,0,0
1314362456.31754255,0.00012284,0.00004259,1687.42529297,0,0,0
1314362456.36946034,0.00012277,0.00004246,1687.50219727,0,0,0
1314362456.41753983,0.00012282,0.00004258,1687.58044434,0,0,0
1314362456.46948075,0.00012276,0.00004245,1687.65747070,0,0,0
1314362456.51745224,0.00012280,0.00004257,1687.73571777,0,0,0
1314362456.56949592,0.00012274,0.00004244,1687.81262207,0,0,0
1314362456.61745572,0.00012279,0.00004256,1687.89074707,0,0,0
1314362456.66939950,0.00012272,0.00004243,1687.96777344,0,0,0
1314362456.72151065,0.00012277,0.00004256,1688.04589844,0,0,0
1314362456.76949835,0.00012270,0.00004242,1688.12280273,0,0,0
1314362456.82049346,0.00012275,0.00004255,1688.20080566,0,0,0
1314362456.86947441,0.00012269,0.00004241,1688.27770996,0,0,0
1314362456.91751170,0.00012273,0.00004254,1688.35583496,0,0,0
1314362456.96951914,0.00012267,0.00004241,1688.43261719,0,0,0
1314362457.01752067,0.00012272,0.00004253,1688.51062012,0,0,0
1314362457.06852508,0.00012265,0.00004240,1688.58752441,0,0,0
1314362457.12054133,0.00012270,0.00004252,1688.66552734,0,0,0
1314362457.17017388,0.00012263,0.00004239,1688.74230957,0,0,0
1314362457.21745682,0.00012268,0.00004251,1688.82043457,0,0,0
1314362457.26949215,0.00012262,0.00004238,1688.89721680,0,0,0
1314362457.31746745,0.00012266,0.00004251,1688.97521973,0,0,0
1314362457.36951780,0.00012260,0.00004237,1689.05187988,0,0,0
1314362457.41753197,0.00012265,0.00004250,1689.12988281,0,0,0
1314362457.46847796,0.00012258,0.00004237,1689.20654297,0,0,0
1314362457.51747584,0.00012263,0.00004249,1689.28442383,0,0,0
1314362457.56947708,0.00012256,0.00004236,1689.36120605,0,0,0
1314362457.62050009,0.00012261,0.00004248,1689.43908691,0,0,0
1314362457.66846395,0.00012255,0.00004235,1689.51574707,0,0,0
1314362457.70949197,0.00012259,0.00004247,1689.59362793,0,0,0
1314362457.76947021,0.00012259,0.00004247,1689.65539551,0,0,0
1314362457.81744504,0.00012258,0.00004247,1689.74804688,0,0,0
1314362457.86846638,0.00012251,0.00004234,1689.82458496,0,0,0
1314362457.92134118,0.00012256,0.00004246,1689.90234375,0,0,0
1314362457.96149850,0.00012249,0.00004233,1689.97888184,0,0,0
1314362458.02045536,0.00012249,0.00004232,1690.04052734,0,0,0
1314362458.06945562,0.00012248,0.00004232,1690.13305664,0,0,0
1314362458.12123156,0.00012252,0.00004244,1690.21081543,0,0,0
1314362458.16845727,0.00012246,0.00004231,1690.28723145,0,0,0
1314362458.21751690,0.00012251,0.00004243,1690.36499023,0,0,0
1314362458.26946664,0.00012244,0.00004230,1690.44140625,0,0,0
1314362458.32045770,0.00012249,0.00004243,1690.51904297,0,0,0
1314362458.36947632,0.00012242,0.00004230,1690.59533691,0,0,0
1314362458.42045498,0.00012247,0.00004242,1690.67297363,0,0,0
1314362458.46946239,0.00012241,0.00004229,1690.74926758,0,0,0
1314362458.51732087,0.00012245,0.00004241,1690.82690430,0,0,0
1314362458.56947351,0.00012239,0.00004228,1690.90319824,0,0,0
1314362458.61753464,0.00012244,0.00004240,1690.98071289,0,0,0
1314362458.66853118,0.00012237,0.00004227,1691.05700684,0,0,0
1314362458.72151709,0.00012242,0.00004240,1691.13439941,0,0,0
1314362458.76949739,0.00012235,0.00004227,1691.21057129,0,0,0
1314362458.81752133,0.00012240,0.00004239,1691.28808594,0,0,0
1314362458.86851573,0.00012234,0.00004226,1691.36425781,0,0,0
1314362458.90946150,0.00012238,0.00004238,1691.44165039,0,0,0
1314362458.96857882,0.00012238,0.00004238,1691.50305176,0,0,0
1314362459.01756310,0.00012237,0.00004237,1691.59509277,0,0,0
1314362459.06940746,0.00012230,0.00004224,1691.67126465,0,0,0
1314362459.11745071,0.00012235,0.00004237,1691.74853516,0,0,0
1314362459.16952443,0.00012228,0.00004224,1691.82470703,0,0,0
1314362459.21839690,0.00012233,0.00004236,1691.90197754,0,0,0
1314362459.26848912,0.00012227,0.00004223,1691.97790527,0,0,0
1314362459.31731415,0.00012231,0.00004235,1692.05517578,0,0,0
1314362459.36858201,0.00012225,0.00004222,1692.13110352,0,0,0
1314362459.41748476,0.00012230,0.00004234,1692.20825195,0,0,0
1314362459.46847820,0.00012223,0.00004222,1692.28417969,0,0,0
1314362459.51731348,0.00012228,0.00004234,1692.36132812,0,0,0
1314362459.56946087,0.00012221,0.00004221,1692.43725586,0,0,0
1314362459.62329006,0.00012226,0.00004233,1692.51428223,0,0,0
1314362459.67349267,0.00012220,0.00004220,1692.59008789,0,0,0
1314362459.70928335,0.00012225,0.00004232,1692.66711426,0,0,0
1314362459.76852107,0.00012224,0.00004232,1692.72827148,0,0,0
1314362459.81746888,0.00012223,0.00004231,1692.81982422,0,0,0
1314362459.86951995,0.00012216,0.00004219,1692.89562988,0,0,0
1314362459.91840315,0.00012221,0.00004231,1692.97253418,0,0,0
1314362459.96962190,0.00012214,0.00004218,1693.04821777,0,0,0
1314362460.02059770,0.00012219,0.00004230,1693.12512207,0,0,0
1314362460.06852221,0.00012213,0.00004217,1693.20068359,0,0,0
1314362460.10937405,0.00012218,0.00004229,1693.27758789,0,0,0
1314362460.16846228,0.00012217,0.00004229,1693.33850098,0,0,0
1314362460.21754718,0.00012216,0.00004228,1693.42993164,0,0,0
1314362460.26949334,0.00012209,0.00004216,1693.50561523,0,0,0
1314362460.31738067,0.00012214,0.00004228,1693.58239746,0,0,0
1314362460.36948490,0.00012208,0.00004215,1693.65795898,0,0,0
1314362460.42052269,0.00012213,0.00004227,1693.73461914,0,0,0
1314362460.46850705,0.00012206,0.00004214,1693.81018066,0,0,0
1314362460.50847721,0.00012211,0.00004226,1693.88684082,0,0,0
1314362460.56951833,0.00012210,0.00004226,1693.94763184,0,0,0
1314362460.61748576,0.00012209,0.00004225,1694.03894043,0,0,0
1314362460.66860223,0.00012203,0.00004213,1694.11437988,0,0,0
1314362460.71752048,0.00012207,0.00004225,1694.19104004,0,0,0
1314362460.76947641,0.00012201,0.00004212,1694.26647949,0,0,0
1314362460.82047558,0.00012206,0.00004224,1694.34301758,0,0,0
1314362460.86946869,0.00012199,0.00004211,1694.41845703,0,0,0
1314362460.90946531,0.00012204,0.00004223,1694.49499512,0,0,0
1314362460.96925282,0.00012203,0.00004223,1694.55578613,0,0,0
1314362461.01757026,0.00012202,0.00004222,1694.64685059,0,0,0
1314362461.06934810,0.00012196,0.00004210,1694.72229004,0,0,0
1314362461.11759329,0.00012201,0.00004222,1694.79870605,0,0,0
1314362461.17351413,0.00012194,0.00004209,1694.87402344,0,0,0
1314362461.21727920,0.00012199,0.00004221,1694.95056152,0,0,0
1314362461.26949596,0.00012192,0.00004209,1695.02575684,0,0,0
1314362461.31729603,0.00012197,0.00004220,1695.10217285,0,0,0
1314362461.36859822,0.00012191,0.00004208,1695.17749023,0,0,0
1314362461.41745710,0.00012195,0.00004220,1695.25378418,0,0,0
1314362461.46858525,0.00012189,0.00004207,1695.32897949,0,0,0
1314362461.51752138,0.00012194,0.00004219,1695.40539551,0,0,0
1314362461.56949353,0.00012187,0.00004206,1695.48046875,0,0,0
1314362461.62058306,0.00012192,0.00004218,1695.55676270,0,0,0
1314362461.66947889,0.00012186,0.00004206,1695.63183594,0,0,0
1314362461.71348214,0.00012190,0.00004217,1695.70812988,0,0,0
1314362461.76949358,0.00012190,0.00004217,1695.76855469,0,0,0
1314362461.81745839,0.00012189,0.00004217,1695.85937500,0,0,0
1314362461.87246394,0.00012182,0.00004204,1695.93432617,0,0,0
1314362461.92052221,0.00012187,0.00004216,1696.01049805,0,0,0
1314362461.97104383,0.00012181,0.00004204,1696.08544922,0,0,0
1314362462.01746607,0.00012185,0.00004215,1696.16149902,0,0,0
1314362462.06949306,0.00012179,0.00004203,1696.23645020,0,0,0
1314362462.12052584,0.00012184,0.00004214,1696.31250000,0,0,0
1314362462.16859746,0.00012177,0.00004202,1696.38745117,0,0,0
1314362462.21746826,0.00012182,0.00004214,1696.46350098,0,0,0
1314362462.26950431,0.00012176,0.00004201,1696.53845215,0,0,0
1314362462.31734562,0.00012180,0.00004213,1696.61437988,0,0,0
1314362462.36802149,0.00012174,0.00004201,1696.68920898,0,0,0
1314362462.42059374,0.00012179,0.00004212,1696.76513672,0,0,0
1314362462.46949482,0.00012172,0.00004200,1696.83996582,0,0,0
1314362462.50948143,0.00012177,0.00004212,1696.91589355,0,0,0
1314362462.56950092,0.00012176,0.00004211,1696.97619629,0,0,0
1314362462.61746335,0.00012175,0.00004211,1697.06652832,0,0,0
1314362462.66868043,0.00012169,0.00004199,1697.14123535,0,0,0
1314362462.71751070,0.00012174,0.00004210,1697.21704102,0,0,0
1314362462.76947594,0.00012167,0.00004198,1697.29162598,0,0,0
1314362462.82050061,0.00012172,0.00004209,1697.36743164,0,0,0
1314362462.86949229,0.00012166,0.00004197,1697.44213867,0,0,0
1314362462.92088294,0.00012170,0.00004209,1697.51782227,0,0,0
1314362462.96947145,0.00012164,0.00004197,1697.59240723,0,0,0
1314362463.01745892,0.00012169,0.00004208,1697.66809082,0,0,0
1314362463.06947780,0.00012162,0.00004196,1697.74255371,0,0,0
1314362463.11750031,0.00012167,0.00004207,1697.81823730,0,0,0
1314362463.16844535,0.00012161,0.00004195,1697.89270020,0,0,0
1314362463.21746159,0.00012165,0.00004207,1697.96838379,0,0,0
1314362463.26944709,0.00012159,0.00004195,1698.04284668,0,0,0
1314362463.31713033,0.00012164,0.00004206,1698.11840820,0,0,0
1314362463.36912894,0.00012157,0.00004194,1698.19274902,0,0,0
1314362463.41756916,0.00012162,0.00004205,1698.26831055,0,0,0
1314362463.46914363,0.00012156,0.00004193,1698.34265137,0,0,0
1314362463.51748109,0.00012160,0.00004204,1698.41809082,0,0,0
1314362463.57422090,0.00012154,0.00004192,1698.49243164,0,0,0
1314362463.62050390,0.00012159,0.00004204,1698.56787109,0,0,0
1314362463.66950202,0.00012153,0.00004192,1698.64221191,0,0,0
1314362463.71722412,0.00012157,0.00004203,1698.71752930,0,0,0
1314362463.76953459,0.00012151,0.00004191,1698.79174805,0,0,0
1314362463.81742668,0.00012156,0.00004202,1698.86706543,0,0,0
1314362463.86868262,0.00012149,0.00004190,1698.94128418,0,0,0
1314362463.91750669,0.00012154,0.00004202,1699.01660156,0,0,0
1314362463.96948433,0.00012148,0.00004190,1699.09069824,0,0,0
1314362464.01721334,0.00012152,0.00004201,1699.16589355,0,0,0
1314362464.06948590,0.00012146,0.00004189,1699.23999023,0,0,0
1314362464.10948706,0.00012151,0.00004200,1699.31518555,0,0,0
1314362464.17020392,0.00012150,0.00004200,1699.37487793,0,0,0
1314362464.21745682,0.00012149,0.00004199,1699.46435547,0,0,0
1314362464.26853037,0.00012143,0.00004188,1699.53833008,0,0,0
1314362464.32116365,0.00012147,0.00004199,1699.61340332,0,0,0
1314362464.36150384,0.00012141,0.00004187,1699.68725586,0,0,0
1314362464.41761589,0.00012141,0.00004187,1699.74682617,0,0,0
1314362464.46952248,0.00012140,0.00004186,1699.83618164,0,0,0
1314362464.51718497,0.00012144,0.00004197,1699.91113281,0,0,0
1314362464.56852627,0.00012138,0.00004186,1699.98498535,0,0,0
1314362464.61746907,0.00012143,0.00004197,1700.05993652,0,0,0
1314362464.66048241,0.00012137,0.00004185,1700.13378906,0,0,0
1314362464.72148275,0.00012136,0.00004185,1700.19335938,0,0,0
1314362464.76970315,0.00012135,0.00004184,1700.28259277,0,0,0
1314362464.81745625,0.00012140,0.00004195,1700.35754395,0,0,0
1314362464.86948872,0.00012134,0.00004184,1700.43139648,0,0,0
1314362464.91746378,0.00012138,0.00004194,1700.50622559,0,0,0
1314362464.96922088,0.00012132,0.00004183,1700.57995605,0,0,0
1314362465.01744127,0.00012136,0.00004194,1700.65490723,0,0,0
1314362465.06874681,0.00012131,0.00004182,1700.72863770,0,0,0
1314362465.11721659,0.00012135,0.00004193,1700.80334473,0,0,0
1314362465.16948915,0.00012129,0.00004182,1700.87707520,0,0,0
1314362465.21760273,0.00012133,0.00004192,1700.95178223,0,0,0
1314362465.26955724,0.00012127,0.00004181,1701.02551270,0,0,0
1314362465.32153463,0.00012132,0.00004192,1701.10021973,0,0,0
1314362465.36858368,0.00012126,0.00004180,1701.17382812,0,0,0
1314362465.41744256,0.00012130,0.00004191,1701.24853516,0,0,0
1314362465.46921420,0.00012124,0.00004180,1701.32214355,0,0,0
1314362465.51716876,0.00012129,0.00004190,1701.39685059,0,0,0
1314362465.56947207,0.00012123,0.00004179,1701.47045898,0,0,0
1314362465.62052369,0.00012127,0.00004190,1701.54504395,0,0,0
1314362465.66845298,0.00012121,0.00004178,1701.61853027,0,0,0
1314362465.70947933,0.00012126,0.00004189,1701.69311523,0,0,0
1314362465.76962924,0.00012125,0.00004189,1701.75231934,0,0,0
1314362465.82058311,0.00012124,0.00004188,1701.84106445,0,0,0
